| time (UTC) | temp F | wind direction | speed MPH | gust MPH | rain 1hr in | rain 24hr in | rain mn in | humidity % | barometer mb |
| 20260902024034 | 61 | 104 | 3.0 | 7.0 | 0.00 | 0.00 | 0.00 | 89 | 1019.1 |
| 20260902023544 | 61 | 117 | 3.0 | 7.0 | 0.00 | 0.00 | 0.00 | 89 | 1019.1 |
| 20260902023031 | 61 | 140 | 3.0 | 7.0 | 0.00 | 0.00 | 0.00 | 89 | 1019.2 |
| 20260902022520 | 61 | 132 | 2.0 | 5.0 | 0.00 | 0.00 | 0.00 | 89 | 1019.3 |
| 20260902022022 | 61 | 138 | 2.0 | 5.0 | 0.00 | 0.00 | 0.00 | 89 | 1019.3 |
| 20260902021533 | 61 | 109 | 2.0 | 5.0 | 0.00 | 0.00 | 0.00 | 89 | 1019.3 |
| 20260902021035 | 61 | 135 | 2.0 | 5.0 | 0.00 | 0.00 | 0.00 | 89 | 1019.3 |
| 20260902020523 | 61 | 142 | 2.0 | 5.0 | 0.00 | 0.00 | 0.00 | 89 | 1019.3 |
| 20260902020024 | 61 | 117 | 2.0 | 5.0 | 0.00 | 0.00 | 0.00 | 89 | 1019.2 |
| 20260902015527 | 61 | 137 | 2.0 | 5.0 | 0.00 | 0.08 | 0.00 | 89 | 1019.2 |
| 20260902015033 | 61 | 184 | 1.0 | 8.0 | 0.00 | 0.08 | 0.00 | 89 | 1019.2 |
| 20260902014522 | 61 | 138 | 3.0 | 8.0 | 0.00 | 0.08 | 0.00 | 88 | 1019.2 |
| 20260902014026 | 61 | 142 | 2.0 | 5.0 | 0.00 | 0.08 | 0.00 | 88 | 1019.2 |
| 20260902013529 | 61 | 169 | 2.0 | 7.0 | 0.00 | 0.08 | 0.00 | 88 | 1019.3 |
| 20260902013034 | 61 | 130 | 3.0 | 7.0 | 0.00 | 0.08 | 0.00 | 88 | 1019.3 |
| 20260902012540 | 61 | 140 | 2.0 | 5.0 | 0.00 | 0.08 | 0.00 | 88 | 1019.3 |
| 20260902012044 | 61 | 114 | 2.0 | 5.0 | 0.00 | 0.08 | 0.00 | 88 | 1019.4 |
| 20260902011553 | 61 | 158 | 2.0 | 4.0 | 0.00 | 0.08 | 0.00 | 88 | 1019.3 |
| 20260902011021 | 61 | 113 | 2.0 | 4.0 | 0.00 | 0.08 | 0.00 | 88 | 1019.4 |
| 20260902010528 | 61 | 113 | 1.0 | 3.0 | 0.00 | 0.08 | 0.00 | 88 | 1019.5 |
| 20260902010026 | 61 | 113 | 1.0 | 3.0 | 0.00 | 0.08 | 0.00 | 88 | 1019.5 |
| 20260902005534 | 61 | 113 | 1.0 | 4.0 | 0.00 | 0.16 | 0.00 | 88 | 1019.5 |
| 20260902005018 | 61 | 113 | 1.0 | 7.0 | 0.00 | 0.16 | 0.00 | 87 | 1019.6 |
| 20260902004528 | 61 | 173 | 3.0 | 7.0 | 0.00 | 0.16 | 0.00 | 87 | 1019.6 |
| 20260902004037 | 61 | 121 | 2.0 | 8.0 | 0.00 | 0.16 | 0.00 | 87 | 1019.5 |
| 20260902003526 | 61 | 142 | 4.0 | 7.0 | 0.00 | 0.16 | 0.00 | 87 | 1019.6 |
| 20260902003025 | 61 | 142 | 2.0 | 4.0 | 0.00 | 0.16 | 0.00 | 87 | 1019.6 |
| 20260902002534 | 61 | 138 | 2.0 | 7.0 | 0.00 | 0.16 | 0.00 | 87 | 1019.5 |
| 20260902002021 | 61 | 136 | 2.0 | 7.0 | 0.00 | 0.16 | 0.00 | 86 | 1019.5 |
| 20260902001555 | 61 | 129 | 2.0 | 4.0 | 0.00 | 0.16 | 0.00 | 86 | 1019.6 |
| 20260902001040 | 61 | 136 | 1.0 | 5.0 | 0.00 | 0.16 | 0.00 | 86 | 1019.6 |
| 20260902000522 | 61 | 157 | 1.0 | 3.0 | 0.00 | 0.16 | 0.00 | 86 | 1019.6 |
| 20260902000022 | 61 | 133 | 1.0 | 3.0 | 0.00 | 0.16 | 0.00 | 86 | 1019.5 |
| 20260901235531 | 61 | 133 | 1.0 | 3.0 | 0.00 | 0.16 | 0.00 | 85 | 1019.6 |
| 20260901235039 | 61 | 133 | 1.0 | 3.0 | 0.00 | 0.16 | 0.00 | 85 | 1019.7 |
| 20260901234522 | 61 | 133 | 1.0 | 3.0 | 0.00 | 0.16 | 0.00 | 85 | 1019.7 |
| 20260901234030 | 61 | 133 | 1.0 | 3.0 | 0.00 | 0.16 | 0.00 | 85 | 1019.7 |
| 20260901233519 | 61 | 133 | 0.0 | 2.0 | 0.00 | 0.16 | 0.00 | 84 | 1019.7 |
| 20260901233027 | 61 | 133 | 1.0 | 3.0 | 0.00 | 0.16 | 0.00 | 84 | 1019.7 |
| 20260901232516 | 61 | 133 | 1.0 | 3.0 | 0.00 | 0.16 | 0.00 | 84 | 1019.8 |
| 20260901232019 | 61 | 133 | 1.0 | 3.0 | 0.00 | 0.16 | 0.00 | 84 | 1019.9 |
| 20260901231553 | 61 | 133 | 1.0 | 3.0 | 0.00 | 0.16 | 0.00 | 83 | 1019.9 |
| 20260901231019 | 61 | 133 | 1.0 | 3.0 | 0.00 | 0.16 | 0.00 | 83 | 1019.9 |
| 20260901230549 | 61 | 153 | 1.0 | 3.0 | 0.00 | 0.16 | 0.00 | 83 | 1019.9 |
| 20260901230025 | 61 | 153 | 1.0 | 3.0 | 0.00 | 0.16 | 0.00 | 82 | 1019.9 |
| 20260901225534 | 61 | 159 | 0.0 | 5.0 | 0.00 | 0.16 | 0.00 | 82 | 1019.9 |
| 20260901225022 | 61 | 159 | 1.0 | 5.0 | 0.00 | 0.16 | 0.00 | 81 | 1020.2 |
| 20260901224556 | 61 | 158 | 1.0 | 3.0 | 0.00 | 0.16 | 0.00 | 81 | 1020.2 |
| 20260901224022 | 61 | 190 | 1.0 | 3.0 | 0.00 | 0.16 | 0.00 | 80 | 1020.2 |
| 20260901223528 | 61 | 133 | 0.0 | 3.0 | 0.00 | 0.16 | 0.00 | 80 | 1020.2 |
| 20260901223018 | 61 | 172 | 1.0 | 3.0 | 0.00 | 0.16 | 0.00 | 79 | 1020.1 |
| 20260901222522 | 61 | 173 | 1.0 | 3.0 | 0.00 | 0.16 | 0.00 | 79 | 1020.1 |
| 20260901222032 | 61 | 215 | 1.0 | 2.0 | 0.00 | 0.16 | 0.00 | 79 | 1020.2 |
| 20260901221521 | 62 | 215 | 1.0 | 2.0 | 0.00 | 0.16 | 0.00 | 78 | 1020.0 |
| 20260901221025 | 62 | 215 | 0.0 | 3.0 | 0.00 | 0.16 | 0.00 | 78 | 1020.1 |
| 20260901220532 | 62 | 215 | 1.0 | 3.0 | 0.00 | 0.16 | 0.00 | 78 | 1020.1 |
| 20260901220034 | 62 | 215 | 0.0 | 2.0 | 0.00 | 0.16 | 0.00 | 77 | 1020.1 |
| 20260901215523 | 62 | 215 | 1.0 | 2.0 | 0.00 | 0.16 | 0.03 | 77 | 1020.1 |
| 20260901215026 | 62 | 215 | 0.0 | 2.0 | 0.00 | 0.16 | 0.03 | 77 | 1020.2 |
| 20260901214535 | 62 | 215 | 0.0 | 2.0 | 0.00 | 0.16 | 0.03 | 77 | 1020.1 |
| 20260901214023 | 62 | 215 | 0.0 | 2.0 | 0.00 | 0.16 | 0.03 | 77 | 1020.2 |
| 20260901213551 | 63 | 215 | 0.0 | 2.0 | 0.00 | 0.16 | 0.03 | 76 | 1020.2 |
| 20260901213035 | 63 | 215 | 0.0 | 2.0 | 0.00 | 0.16 | 0.03 | 76 | 1020.0 |
| 20260901212540 | 63 | 215 | 1.0 | 2.0 | 0.00 | 0.16 | 0.03 | 76 | 1020.2 |
| 20260901212051 | 63 | 215 | 1.0 | 2.0 | 0.00 | 0.16 | 0.03 | 76 | 1020.2 |
| 20260901211540 | 63 | 215 | 0.0 | 1.0 | 0.00 | 0.16 | 0.03 | 76 | 1020.1 |
| 20260901211025 | 63 | 215 | 0.0 | 1.0 | 0.00 | 0.16 | 0.03 | 76 | 1020.1 |
| 20260901210531 | 63 | 215 | 0.0 | 2.0 | 0.00 | 0.16 | 0.03 | 76 | 1020.1 |
| 20260901210033 | 63 | 215 | 0.0 | 2.0 | 0.00 | 0.16 | 0.03 | 76 | 1020.1 |
| 20260901205522 | 63 | 215 | 1.0 | 3.0 | 0.00 | 0.16 | 0.03 | 75 | 1020.3 |
| 20260901205032 | 63 | 215 | 2.0 | 4.0 | 0.00 | 0.16 | 0.03 | 75 | 1020.4 |
| 20260901204520 | 63 | 213 | 2.0 | 4.0 | 0.00 | 0.16 | 0.03 | 75 | 1020.5 |
| 20260901204023 | 63 | 201 | 2.0 | 4.0 | 0.00 | 0.16 | 0.03 | 75 | 1020.6 |
| 20260901203533 | 63 | 171 | 2.0 | 4.0 | 0.00 | 0.16 | 0.03 | 75 | 1020.5 |
| 20260901203019 | 63 | 202 | 1.0 | 5.0 | 0.00 | 0.16 | 0.03 | 75 | 1020.6 |
| 20260901202527 | 63 | 205 | 2.0 | 5.0 | 0.00 | 0.16 | 0.03 | 75 | 1020.7 |
| 20260901202016 | 63 | 182 | 2.0 | 4.0 | 0.00 | 0.16 | 0.03 | 75 | 1020.7 |
| 20260901201522 | 63 | 182 | 3.0 | 4.0 | 0.00 | 0.16 | 0.03 | 75 | 1020.7 |
| 20260901201030 | 63 | 225 | 2.0 | 4.0 | 0.00 | 0.16 | 0.03 | 74 | 1020.7 |
| 20260901200519 | 63 | 213 | 1.0 | 4.0 | 0.00 | 0.16 | 0.03 | 74 | 1020.7 |
| 20260901200040 | 63 | 190 | 1.0 | 4.0 | 0.00 | 0.16 | 0.03 | 74 | 1020.7 |
| 20260901195522 | 63 | 208 | 1.0 | 6.0 | 0.00 | 0.16 | 0.03 | 74 | 1020.6 |
| 20260901195049 | 63 | 207 | 2.0 | 6.0 | 0.00 | 0.16 | 0.03 | 74 | 1020.6 |
| 20260901194517 | 63 | 192 | 2.0 | 4.0 | 0.00 | 0.16 | 0.03 | 74 | 1020.5 |
| 20260901194023 | 63 | 206 | 2.0 | 5.0 | 0.00 | 0.16 | 0.03 | 74 | 1020.4 |
| 20260901193525 | 63 | 167 | 2.0 | 5.0 | 0.00 | 0.16 | 0.03 | 74 | 1020.4 |
| 20260901192528 | 63 | 202 | 2.0 | 6.0 | 0.00 | 0.16 | 0.03 | 73 | 1020.4 |
| 20260901192032 | 63 | 184 | 1.0 | 6.0 | 0.00 | 0.16 | 0.03 | 73 | 1020.4 |
| 20260901191521 | 63 | 237 | 2.0 | 4.0 | 0.00 | 0.16 | 0.03 | 72 | 1020.4 |
| 20260901191023 | 63 | 202 | 2.0 | 5.0 | 0.00 | 0.16 | 0.03 | 72 | 1020.3 |
| 20260901190530 | 64 | 197 | 2.0 | 5.0 | 0.00 | 0.16 | 0.03 | 71 | 1020.2 |
| 20260901190030 | 64 | 211 | 2.0 | 4.0 | 0.00 | 0.16 | 0.03 | 71 | 1020.1 |
| 20260901185539 | 64 | 180 | 2.0 | 4.0 | 0.00 | 0.16 | 0.03 | 70 | 1020.1 |
| 20260901185022 | 64 | 184 | 1.0 | 4.0 | 0.00 | 0.16 | 0.03 | 70 | 1020.1 |
| 20260901184531 | 64 | 198 | 2.0 | 5.0 | 0.00 | 0.16 | 0.03 | 70 | 1020.1 |
| 20260901184021 | 64 | 160 | 1.0 | 5.0 | 0.00 | 0.16 | 0.03 | 69 | 1020.1 |
| 20260901183528 | 64 | 182 | 2.0 | 5.0 | 0.00 | 0.16 | 0.03 | 69 | 1020.1 |
| 20260901183016 | 65 | 173 | 1.0 | 5.0 | 0.00 | 0.16 | 0.03 | 69 | 1020.1 |
| 20260901182521 | 65 | 212 | 2.0 | 6.0 | 0.00 | 0.16 | 0.03 | 69 | 1020.1 |
| 20260901182029 | 65 | 227 | 3.0 | 6.0 | 0.00 | 0.16 | 0.03 | 68 | 1020.1 |
| 20260901181518 | 65 | 193 | 2.0 | 8.0 | 0.00 | 0.16 | 0.03 | 69 | 1020.2 |
| 20260901181024 | 66 | 191 | 3.0 | 8.0 | 0.00 | 0.16 | 0.03 | 69 | 1020.2 |
| 20260901180533 | 66 | 244 | 3.0 | 8.0 | 0.00 | 0.16 | 0.03 | 69 | 1020.1 |
| 20260901180030 | 66 | 264 | 1.0 | 8.0 | 0.00 | 0.16 | 0.03 | 68 | 1020.1 |
| 20260901175518 | 66 | 143 | 3.0 | 9.0 | 0.00 | 0.16 | 0.03 | 69 | 1020.2 |
| 20260901175025 | 66 | 200 | 4.0 | 7.0 | 0.00 | 0.16 | 0.03 | 69 | 1020.3 |
| 20260901174530 | 66 | 263 | 4.0 | 8.0 | 0.00 | 0.16 | 0.03 | 69 | 1020.2 |
| 20260901174018 | 66 | 216 | 4.0 | 10.0 | 0.00 | 0.16 | 0.03 | 69 | 1020.2 |
| 20260901173523 | 67 | 257 | 4.0 | 10.0 | 0.00 | 0.16 | 0.03 | 69 | 1020.3 |
| 20260901173021 | 67 | 238 | 5.0 | 10.0 | 0.00 | 0.16 | 0.03 | 68 | 1020.3 |
| 20260901172525 | 67 | 207 | 4.0 | 11.0 | 0.00 | 0.16 | 0.03 | 68 | 1020.4 |
| 20260901172031 | 67 | 252 | 5.0 | 11.0 | 0.00 | 0.16 | 0.03 | 68 | 1020.4 |
| 20260901171531 | 67 | 235 | 5.0 | 12.0 | 0.00 | 0.16 | 0.03 | 67 | 1020.4 |
| 20260901171017 | 67 | 288 | 5.0 | 12.0 | 0.00 | 0.16 | 0.03 | 66 | 1020.5 |
| 20260901170517 | 67 | 259 | 6.0 | 12.0 | 0.00 | 0.16 | 0.03 | 67 | 1020.5 |
| 20260901170019 | 67 | 261 | 7.0 | 13.0 | 0.00 | 0.16 | 0.03 | 67 | 1020.5 |
| 20260901165543 | 68 | 250 | 8.0 | 13.0 | 0.00 | 0.16 | 0.03 | 67 | 1020.6 |
| 20260901165048 | 68 | 256 | 6.0 | 13.0 | 0.00 | 0.16 | 0.03 | 68 | 1020.6 |
| 20260901164517 | 68 | 248 | 7.0 | 13.0 | 0.00 | 0.16 | 0.03 | 67 | 1020.6 |
| 20260901164023 | 68 | 247 | 7.0 | 13.0 | 0.00 | 0.16 | 0.03 | 67 | 1020.6 |
| 20260901163531 | 68 | 281 | 4.0 | 12.0 | 0.00 | 0.16 | 0.03 | 67 | 1020.5 |
| 20260901163016 | 68 | 252 | 6.0 | 14.0 | 0.00 | 0.16 | 0.03 | 66 | 1020.5 |
| 20260901162525 | 68 | 265 | 6.0 | 14.0 | 0.00 | 0.16 | 0.03 | 67 | 1020.6 |
| 20260901162032 | 67 | 253 | 6.0 | 12.0 | 0.00 | 0.16 | 0.03 | 68 | 1020.5 |
| 20260901161521 | 68 | 234 | 7.0 | 12.0 | 0.00 | 0.16 | 0.03 | 67 | 1020.6 |
| 20260901161027 | 68 | 280 | 7.0 | 13.0 | 0.00 | 0.16 | 0.03 | 66 | 1020.5 |
| 20260901160530 | 68 | 281 | 7.0 | 11.0 | 0.00 | 0.16 | 0.03 | 66 | 1020.5 |
| 20260901160055 | 68 | 283 | 4.0 | 13.0 | 0.00 | 0.16 | 0.03 | 65 | 1020.5 |
| 20260901155523 | 68 | 247 | 8.0 | 14.0 | 0.00 | 0.16 | 0.03 | 64 | 1020.5 |
| 20260901155028 | 68 | 227 | 10.0 | 14.0 | 0.00 | 0.16 | 0.03 | 64 | 1020.5 |
| 20260901154534 | 69 | 261 | 7.0 | 12.0 | 0.00 | 0.16 | 0.03 | 64 | 1020.5 |
| 20260901154022 | 69 | 213 | 6.0 | 13.0 | 0.00 | 0.16 | 0.03 | 63 | 1020.5 |
| 20260901153532 | 69 | 243 | 8.0 | 15.0 | 0.00 | 0.16 | 0.03 | 62 | 1020.5 |
| 20260901153021 | 69 | 302 | 5.0 | 11.0 | 0.00 | 0.16 | 0.03 | 63 | 1020.5 |
| 20260901152530 | 69 | 261 | 5.0 | 11.0 | 0.00 | 0.16 | 0.03 | 63 | 1020.5 |
| 20260901152034 | 69 | 247 | 5.0 | 10.0 | 0.00 | 0.16 | 0.03 | 64 | 1020.4 |
| 20260901151542 | 69 | 223 | 6.0 | 9.0 | 0.00 | 0.16 | 0.03 | 63 | 1020.4 |
| 20260901151027 | 69 | 259 | 5.0 | 11.0 | 0.00 | 0.16 | 0.03 | 64 | 1020.3 |
| 20260901150535 | 69 | 272 | 8.0 | 12.0 | 0.00 | 0.16 | 0.03 | 64 | 1020.3 |
| 20260901150016 | 69 | 264 | 6.0 | 13.0 | 0.00 | 0.16 | 0.03 | 63 | 1020.3 |
| 20260901145521 | 69 | 240 | 7.0 | 13.0 | 0.00 | 0.16 | 0.03 | 63 | 1020.3 |
| 20260901145024 | 69 | 259 | 6.0 | 11.0 | 0.00 | 0.16 | 0.03 | 62 | 1020.3 |
| 20260901144532 | 69 | 244 | 7.0 | 13.0 | 0.00 | 0.16 | 0.03 | 63 | 1020.3 |
| 20260901144020 | 69 | 236 | 6.0 | 12.0 | 0.00 | 0.16 | 0.03 | 63 | 1020.4 |
| 20260901143542 | 69 | 278 | 7.0 | 13.0 | 0.00 | 0.16 | 0.03 | 64 | 1020.5 |
| 20260901143034 | 69 | 236 | 7.0 | 13.0 | 0.00 | 0.16 | 0.03 | 64 | 1020.4 |
| 20260901142522 | 69 | 296 | 7.0 | 13.0 | 0.00 | 0.16 | 0.03 | 63 | 1020.4 |
| 20260901142031 | 69 | 261 | 7.0 | 14.0 | 0.00 | 0.16 | 0.03 | 63 | 1020.4 |
| 20260901141540 | 69 | 296 | 9.0 | 13.0 | 0.00 | 0.16 | 0.03 | 63 | 1020.4 |
| 20260901141042 | 69 | 240 | 10.0 | 14.0 | 0.00 | 0.16 | 0.03 | 63 | 1020.4 |
| 20260901140529 | 69 | 267 | 10.0 | 14.0 | 0.00 | 0.16 | 0.03 | 63 | 1020.4 |
| 20260901140031 | 69 | 274 | 8.0 | 14.0 | 0.00 | 0.16 | 0.03 | 62 | 1020.4 |
| 20260901135519 | 69 | 286 | 6.0 | 13.0 | 0.00 | 0.16 | 0.03 | 62 | 1020.4 |
| 20260901135022 | 69 | 232 | 9.0 | 14.0 | 0.00 | 0.16 | 0.03 | 62 | 1020.5 |
| 20260901134531 | 70 | 265 | 8.0 | 14.0 | 0.00 | 0.16 | 0.03 | 62 | 1020.6 |
| 20260901134020 | 69 | 171 | 9.0 | 14.0 | 0.00 | 0.16 | 0.03 | 63 | 1020.5 |
| 20260901133530 | 69 | 287 | 5.0 | 17.0 | 0.00 | 0.16 | 0.03 | 63 | 1020.5 |
| 20260901133019 | 69 | 258 | 10.0 | 17.0 | 0.00 | 0.16 | 0.03 | 63 | 1020.5 |
| 20260901132523 | 69 | 280 | 9.0 | 14.0 | 0.00 | 0.16 | 0.03 | 63 | 1020.5 |
| 20260901132030 | 69 | 190 | 8.0 | 14.0 | 0.00 | 0.16 | 0.03 | 63 | 1020.5 |
| 20260901131519 | 69 | 235 | 7.0 | 15.0 | 0.00 | 0.16 | 0.03 | 64 | 1020.5 |
| 20260901131046 | 68 | 228 | 10.0 | 15.0 | 0.00 | 0.16 | 0.03 | 64 | 1020.6 |
| 20260901130549 | 68 | 265 | 8.0 | 12.0 | 0.00 | 0.16 | 0.03 | 64 | 1020.5 |
| 20260901130027 | 68 | 261 | 7.0 | 12.0 | 0.00 | 0.16 | 0.03 | 64 | 1020.5 |
| 20260901125515 | 68 | 269 | 7.0 | 15.0 | 0.00 | 0.16 | 0.03 | 64 | 1020.4 |
| 20260901125024 | 68 | 236 | 10.0 | 15.0 | 0.00 | 0.16 | 0.03 | 63 | 1020.5 |
| 20260901124533 | 69 | 274 | 8.0 | 15.0 | 0.00 | 0.16 | 0.03 | 64 | 1020.6 |
| 20260901124037 | 69 | 260 | 8.0 | 14.0 | 0.00 | 0.16 | 0.03 | 64 | 1020.5 |
| 20260901123525 | 69 | 223 | 10.0 | 16.0 | 0.00 | 0.16 | 0.03 | 63 | 1020.5 |
| 20260901123034 | 69 | 239 | 9.0 | 16.0 | 0.00 | 0.16 | 0.03 | 62 | 1020.5 |
| 20260901122522 | 69 | 224 | 7.0 | 16.0 | 0.00 | 0.16 | 0.03 | 63 | 1020.6 |
| 20260901122024 | 69 | 246 | 9.0 | 16.0 | 0.00 | 0.16 | 0.03 | 64 | 1020.4 |
| 20260901121533 | 69 | 243 | 10.0 | 15.0 | 0.00 | 0.16 | 0.03 | 65 | 1020.6 |
| 20260901121023 | 69 | 257 | 9.0 | 15.0 | 0.00 | 0.16 | 0.03 | 65 | 1020.6 |
| 20260901120531 | 69 | 254 | 10.0 | 15.0 | 0.00 | 0.16 | 0.03 | 65 | 1020.6 |
| 20260901120032 | 69 | 285 | 10.0 | 15.0 | 0.00 | 0.16 | 0.03 | 65 | 1020.6 |
| 20260901115519 | 69 | 271 | 10.0 | 14.0 | 0.00 | 0.87 | 0.03 | 65 | 1020.6 |
| 20260901115025 | 68 | 249 | 7.0 | 15.0 | 0.00 | 0.87 | 0.03 | 65 | 1020.6 |
| 20260901114515 | 68 | 229 | 10.0 | 16.0 | 0.00 | 0.87 | 0.03 | 65 | 1020.6 |
| 20260901114043 | 68 | 238 | 10.0 | 16.0 | 0.00 | 0.87 | 0.03 | 65 | 1020.5 |
| 20260901113545 | 68 | 208 | 7.0 | 15.0 | 0.00 | 0.87 | 0.03 | 65 | 1020.6 |
| 20260901113033 | 68 | 238 | 9.0 | 16.0 | 0.00 | 0.87 | 0.03 | 66 | 1020.6 |
| 20260901112542 | 68 | 242 | 8.0 | 16.0 | 0.00 | 0.87 | 0.03 | 66 | 1020.6 |
| 20260901112028 | 68 | 236 | 10.0 | 16.0 | 0.00 | 0.87 | 0.03 | 65 | 1020.6 |
| 20260901111517 | 68 | 250 | 11.0 | 16.0 | 0.00 | 0.87 | 0.03 | 66 | 1020.5 |
| 20260901111021 | 68 | 222 | 8.0 | 15.0 | 0.00 | 0.87 | 0.03 | 66 | 1020.5 |
| 20260901110530 | 68 | 253 | 10.0 | 15.0 | 0.00 | 0.87 | 0.03 | 65 | 1020.5 |
| 20260901110033 | 68 | 250 | 8.0 | 15.0 | 0.00 | 0.87 | 0.03 | 65 | 1020.5 |
| 20260901105523 | 68 | 242 | 8.0 | 15.0 | 0.00 | 1.54 | 0.03 | 65 | 1020.5 |
| 20260901105030 | 68 | 261 | 8.0 | 14.0 | 0.00 | 1.54 | 0.03 | 66 | 1020.5 |
| 20260901104534 | 68 | 244 | 7.0 | 13.0 | 0.00 | 1.54 | 0.03 | 66 | 1020.5 |
| 20260901104023 | 68 | 283 | 5.0 | 15.0 | 0.00 | 1.54 | 0.03 | 67 | 1020.4 |
| 20260901103528 | 68 | 272 | 10.0 | 15.0 | 0.00 | 1.54 | 0.03 | 66 | 1020.5 |
| 20260901103016 | 68 | 261 | 9.0 | 14.0 | 0.00 | 1.54 | 0.03 | 65 | 1020.5 |
| 20260901102524 | 67 | 261 | 8.0 | 14.0 | 0.00 | 1.54 | 0.03 | 65 | 1020.4 |
| 20260901102029 | 67 | 264 | 9.0 | 11.0 | 0.00 | 1.54 | 0.03 | 66 | 1020.3 |
| 20260901101517 | 67 | 285 | 9.0 | 14.0 | 0.00 | 1.54 | 0.03 | 66 | 1020.3 |
| 20260901101023 | 67 | 249 | 8.0 | 14.0 | 0.00 | 1.54 | 0.03 | 66 | 1020.3 |
| 20260901100532 | 67 | 278 | 8.0 | 15.0 | 0.00 | 1.54 | 0.03 | 67 | 1020.3 |
| 20260901100022 | 67 | 297 | 10.0 | 15.0 | 0.00 | 1.54 | 0.03 | 67 | 1020.3 |
| 20260901095530 | 67 | 281 | 8.0 | 14.0 | 0.00 | 1.57 | 0.03 | 68 | 1020.3 |
| 20260901095016 | 67 | 294 | 10.0 | 14.0 | 0.00 | 1.57 | 0.03 | 67 | 1020.3 |
| 20260901094545 | 67 | 282 | 7.0 | 14.0 | 0.00 | 1.57 | 0.03 | 67 | 1020.2 |
| 20260901094031 | 67 | 242 | 7.0 | 11.0 | 0.00 | 1.57 | 0.03 | 68 | 1020.2 |
| 20260901093515 | 67 | 257 | 7.0 | 14.0 | 0.00 | 1.57 | 0.03 | 69 | 1020.2 |
| 20260901093021 | 67 | 254 | 10.0 | 15.0 | 0.00 | 1.57 | 0.03 | 69 | 1020.2 |
| 20260901092528 | 67 | 250 | 10.0 | 14.0 | 0.00 | 1.57 | 0.03 | 69 | 1020.1 |
| 20260901092015 | 67 | 238 | 7.0 | 14.0 | 0.00 | 1.57 | 0.03 | 69 | 1020.1 |
| 20260901091524 | 67 | 271 | 9.0 | 16.0 | 0.00 | 1.57 | 0.03 | 69 | 1020.1 |
| 20260901091028 | 67 | 259 | 9.0 | 16.0 | 0.00 | 1.57 | 0.03 | 68 | 1020.0 |
| 20260901090537 | 67 | 287 | 8.0 | 15.0 | 0.00 | 1.57 | 0.03 | 69 | 1020.0 |
| 20260901090018 | 67 | 270 | 9.0 | 14.0 | 0.00 | 1.57 | 0.03 | 70 | 1019.9 |
| 20260901085526 | 66 | 235 | 7.0 | 14.0 | 0.00 | 1.57 | 0.03 | 70 | 1019.9 |
| 20260901085048 | 66 | 266 | 8.0 | 17.0 | 0.00 | 1.57 | 0.03 | 70 | 1019.8 |
| 20260901084515 | 66 | 242 | 11.0 | 17.0 | 0.00 | 1.57 | 0.03 | 70 | 1019.8 |
| 20260901084021 | 66 | 304 | 8.0 | 15.0 | 0.00 | 1.57 | 0.03 | 71 | 1019.7 |
| 20260901083526 | 66 | 296 | 8.0 | 15.0 | 0.00 | 1.57 | 0.03 | 70 | 1019.7 |
| 20260901083046 | 66 | 261 | 9.0 | 15.0 | 0.00 | 1.57 | 0.03 | 70 | 1019.7 |
| 20260901082534 | 66 | 254 | 9.0 | 15.0 | 0.00 | 1.57 | 0.03 | 70 | 1019.6 |
| 20260901082020 | 66 | 245 | 8.0 | 14.0 | 0.00 | 1.57 | 0.03 | 70 | 1019.5 |
| 20260901081526 | 66 | 250 | 8.0 | 13.0 | 0.00 | 1.57 | 0.03 | 70 | 1019.5 |
| 20260901081034 | 66 | 249 | 8.0 | 14.0 | 0.00 | 1.57 | 0.03 | 71 | 1019.5 |
| 20260901080519 | 66 | 251 | 7.0 | 14.0 | 0.00 | 1.57 | 0.03 | 71 | 1019.4 |
| 20260901080022 | 65 | 254 | 8.0 | 14.0 | 0.00 | 1.57 | 0.03 | 72 | 1019.4 |
| 20260901075531 | 65 | 258 | 9.0 | 14.0 | 0.00 | 1.69 | 0.03 | 72 | 1019.3 |
| 20260901075018 | 65 | 292 | 7.0 | 13.0 | 0.00 | 1.69 | 0.03 | 74 | 1019.3 |
| 20260901074527 | 65 | 287 | 5.0 | 13.0 | 0.00 | 1.69 | 0.03 | 74 | 1019.2 |
| 20260901074032 | 65 | 287 | 8.0 | 13.0 | 0.00 | 1.69 | 0.03 | 74 | 1019.2 |
| 20260901073520 | 65 | 275 | 7.0 | 13.0 | 0.00 | 1.69 | 0.03 | 75 | 1019.1 |
| 20260901073030 | 65 | 284 | 8.0 | 11.0 | 0.00 | 1.69 | 0.03 | 74 | 1019.0 |
| 20260901072519 | 65 | 259 | 7.0 | 12.0 | 0.00 | 1.69 | 0.03 | 74 | 1019.0 |
| 20260901072040 | 65 | 252 | 8.0 | 12.0 | 0.00 | 1.69 | 0.03 | 74 | 1019.0 |
| 20260901071528 | 65 | 300 | 7.0 | 13.0 | 0.00 | 1.69 | 0.03 | 75 | 1018.9 |
| 20260901071016 | 65 | 265 | 8.0 | 13.0 | 0.00 | 1.69 | 0.03 | 75 | 1018.9 |
| 20260901070525 | 65 | 266 | 6.0 | 12.0 | 0.00 | 1.69 | 0.03 | 75 | 1018.9 |
| 20260901070028 | 65 | 261 | 6.0 | 11.0 | 0.00 | 1.69 | 0.03 | 76 | 1018.9 |
| 20260901065532 | 65 | 240 | 8.0 | 11.0 | 0.00 | 1.77 | 0.03 | 76 | 1018.8 |
| 20260901065019 | 64 | 238 | 6.0 | 12.0 | 0.00 | 1.77 | 0.03 | 76 | 1018.7 |
| 20260901064528 | 64 | 279 | 5.0 | 12.0 | 0.00 | 1.77 | 0.03 | 76 | 1018.7 |
| 20260901064016 | 64 | 287 | 5.0 | 11.0 | 0.00 | 1.77 | 0.03 | 76 | 1018.6 |
| 20260901063526 | 64 | 236 | 7.0 | 10.0 | 0.00 | 1.77 | 0.03 | 77 | 1018.6 |
| 20260901063053 | 64 | 265 | 6.0 | 10.0 | 0.00 | 1.77 | 0.03 | 77 | 1018.6 |
| 20260901062521 | 64 | 289 | 6.0 | 10.0 | 0.00 | 1.77 | 0.03 | 77 | 1018.6 |
| 20260901062027 | 64 | 276 | 5.0 | 10.0 | 0.00 | 1.77 | 0.03 | 77 | 1018.6 |
| 20260901061534 | 63 | 242 | 6.0 | 9.0 | 0.00 | 1.77 | 0.03 | 77 | 1018.5 |
| 20260901061023 | 63 | 281 | 5.0 | 9.0 | 0.00 | 1.77 | 0.03 | 77 | 1018.5 |
| 20260901060527 | 63 | 254 | 5.0 | 11.0 | 0.00 | 1.77 | 0.03 | 77 | 1018.4 |
| 20260901060027 | 63 | 266 | 6.0 | 11.0 | 0.00 | 1.77 | 0.03 | 77 | 1018.4 |
| 20260901055515 | 63 | 285 | 4.0 | 8.0 | 0.00 | 2.13 | 0.03 | 78 | 1018.3 |
| 20260901055022 | 64 | 297 | 4.0 | 9.0 | 0.00 | 2.13 | 0.03 | 78 | 1018.2 |
| 20260901054526 | 64 | 281 | 5.0 | 9.0 | 0.00 | 2.13 | 0.03 | 77 | 1018.2 |
| 20260901054034 | 63 | 269 | 4.0 | 10.0 | 0.00 | 2.13 | 0.03 | 77 | 1018.2 |
| 20260901053523 | 63 | 289 | 5.0 | 10.0 | 0.00 | 2.13 | 0.03 | 77 | 1018.1 |
| 20260901053031 | 63 | 253 | 5.0 | 9.0 | 0.00 | 2.13 | 0.03 | 77 | 1018.2 |
| 20260901052520 | 63 | 269 | 5.0 | 9.0 | 0.00 | 2.13 | 0.03 | 77 | 1018.0 |
| 20260901051532 | 63 | 275 | 5.0 | 9.0 | 0.00 | 2.13 | 0.03 | 78 | 1017.9 |
| 20260901051039 | 63 | 275 | 4.0 | 10.0 | 0.00 | 2.13 | 0.03 | 79 | 1017.8 |
| 20260901050547 | 63 | 294 | 4.0 | 10.0 | 0.00 | 2.13 | 0.03 | 79 | 1017.7 |
| 20260901050029 | 63 | 274 | 4.0 | 11.0 | 0.00 | 2.13 | 0.03 | 79 | 1017.7 |
| 20260901045515 | 64 | 273 | 5.0 | 11.0 | 0.00 | 2.13 | 0.03 | 80 | 1017.6 |
| 20260901045042 | 64 | 246 | 6.0 | 11.0 | 0.00 | 2.13 | 0.03 | 80 | 1017.5 |
| 20260901044531 | 64 | 281 | 6.0 | 11.0 | 0.00 | 2.13 | 0.03 | 81 | 1017.5 |
| 20260901044018 | 64 | 228 | 5.0 | 11.0 | 0.00 | 2.13 | 0.03 | 81 | 1017.6 |
| 20260901043542 | 64 | 284 | 7.0 | 11.0 | 0.00 | 2.13 | 0.03 | 82 | 1017.6 |
| 20260901043047 | 64 | 282 | 5.0 | 11.0 | 0.00 | 2.13 | 0.03 | 82 | 1017.5 |
| 20260901042517 | 64 | 300 | 5.0 | 10.0 | 0.00 | 2.13 | 0.03 | 82 | 1017.5 |
| 20260901042025 | 64 | 292 | 6.0 | 10.0 | 0.00 | 2.13 | 0.03 | 83 | 1017.4 |
| 20260901041530 | 64 | 260 | 6.0 | 10.0 | 0.00 | 2.13 | 0.03 | 83 | 1017.4 |
| 20260901041019 | 64 | 242 | 5.0 | 10.0 | 0.00 | 2.13 | 0.03 | 83 | 1017.4 |
| 20260901040526 | 64 | 257 | 5.0 | 12.0 | 0.00 | 2.13 | 0.03 | 84 | 1017.3 |
| 20260901040050 | 64 | 262 | 6.0 | 12.0 | 0.00 | 2.13 | 0.03 | 84 | 1017.4 |
| 20260901035518 | 64 | 254 | 4.0 | 10.0 | 0.00 | 2.13 | 0.03 | 84 | 1017.3 |
| 20260901035021 | 64 | 242 | 4.0 | 9.0 | 0.00 | 2.13 | 0.03 | 85 | 1017.3 |
| 20260901034532 | 64 | 252 | 4.0 | 8.0 | 0.00 | 2.13 | 0.03 | 85 | 1017.3 |
| 20260901034019 | 64 | 277 | 3.0 | 8.0 | 0.00 | 2.13 | 0.03 | 85 | 1017.2 |
| 20260901033549 | 64 | 260 | 3.0 | 7.0 | 0.00 | 2.13 | 0.03 | 85 | 1017.2 |
| 20260901033016 | 64 | 261 | 3.0 | 8.0 | 0.00 | 2.13 | 0.03 | 85 | 1017.3 |
| 20260901032521 | 64 | 277 | 3.0 | 8.0 | 0.00 | 2.13 | 0.03 | 85 | 1017.2 |
| 20260901032029 | 64 | 265 | 3.0 | 7.0 | 0.00 | 2.13 | 0.03 | 86 | 1017.2 |
| 20260901031517 | 64 | 259 | 3.0 | 9.0 | 0.00 | 2.13 | 0.03 | 86 | 1017.2 |
| 20260901031023 | 64 | 290 | 3.0 | 9.0 | 0.00 | 2.13 | 0.03 | 86 | 1017.1 |
| 20260901030527 | 64 | 286 | 3.0 | 7.0 | 0.00 | 2.13 | 0.03 | 86 | 1017.1 |
| 20260901030028 | 63 | 293 | 4.0 | 8.0 | 0.00 | 2.13 | 0.03 | 86 | 1017.1 |
| 20260901025517 | 64 | 281 | 4.0 | 8.0 | 0.00 | 2.13 | 0.03 | 86 | 1017.1 |
| 20260901025022 | 64 | 265 | 4.0 | 9.0 | 0.00 | 2.13 | 0.03 | 86 | 1017.1 |
| 20260901024534 | 64 | 271 | 3.0 | 9.0 | 0.00 | 2.13 | 0.03 | 87 | 1017.1 |